GPS BIIRM-4 (PRN 15)

Last updated on Sat Dec 13 2025 00:03:17 GMT+0000 (Coordinated Universal Time)

1 32260U 07047A 25345.25778925 -.00000023 00000+0 00000+0 0 9999 2 32260 53.9543 87.8198 0164204 85.2289 276.6392 2.00564547133045
UTC large
Height (km)
Speed (km/s)
/
Latitude / Longitude
Inclination (degrees)
Orbital Period (minutes)
Azimuth
Elevation
Range (km)
Doppler Factor

Next 0 passes for location: London (51.5072 / 0.1276)

Sorry there are no passes over London.